COSMOS 2251 DEB

Satellite information

Favourite Embed

Satellite Type and Status

DEBRISIN ORBIT

Key statistics

Satellite COSMOS 2251 DEB at a glance.

Uptime

11647

Days in orbit

Revolutions

≈ 14.4

Per day

Orbit

LEO

Low Earth Orbit

Inclination

73.9

Latest

Satellite identification and parameters

Extended collection of information and parameters for COSMOS 2251 DEB.

Object identification

Identified? True

Debris? True

Object name: COSMOS 2251 DEB

International designator: 1993-036AFV

Object number (NORAD): 34997

Object ID (CCSDS): 34997

Country: COMMONWEALTH OF INDEPENDENT STATES (CIS)

Current information (Y/N): Y

RCS size: SMALL

Orbital parameters

Period: 99.769 minutes

Inclination: 73.8838 deg

SMA: 7125.624 km

Apoapsis: 816.259 km

Periapsis: 678.719 km

RAAN: 11.5524 deg

Eccentricy: 0.0096511

Argument of periapsis: 34.1778 deg

Mean anomaly: 326.5539 deg

Mean motion: 14.43339264 rev/day

Mean motion (dot): 0.00009228 rev/day2

B* drag term: 0.0025912 1/REarth

Two-line elements (TLE)

Creation date: May 3, 2025, 2:26 a.m.

Reference frame: TEME

Reference center: EARTH

Epoch: May 2, 2025, 11:01 p.m. UTC

TLE line 0: 0 COSMOS 2251 DEB

TLE line 1: 1 34997U 93036AFV 25122.95903924 .00009228 00000-0 25912-2 0 9998

TLE line 2: 2 34997 73.8838 11.5524 0096511 34.1778 326.5539 14.43339264675168

Live tracking on map

Real-time ground track for satellite COSMOS 2251 DEB.

In-orbit conjunctions

A list of the most updated potential collisions computed for object COSMOS 2251 DEB.

Target Orbit TCA Probability of collision Miss distance Type
NOAA 16 DEB SSO 2024-11-10 06:03:41 0.0003759598 186.0 (m) DEBRIS

Associated space launch

Military communications satellite. Destroyed in a collision with Iridium 33.

COSMOS 2251 DEB was lifted into orbit during the mission ‘Kosmos-3M | Strela-2M 51’, on board a Kosmos-3M space rocket.

The launch took place on June 16, 1993, 4:17 a.m. from 132/1 (132L).

For more information about the launch, click the button.

Launch to space Kosmos-3M | Strela-2M 51
Kosmos-3M | Strela-2M 51

Agency: N/A

Status: Launch Successful

Launch date: June 16, 1993, 4:17 a.m. UTC

Rocket: Kosmos-3M

Launch pad: 132/1 (132L)

Location: Plesetsk Cosmodrome, Russian Federation

...

Latest news about this satellite

There are no fresh news available about this satellite. Check back as we update our databases every day.


Newsletter sign-up

Weekly statistics, charts and insights to help you stay on top of the space industry.